User: anonymous   Login
Location: Maiden
(35.5760°N, 81.2120°W)
Time: 22:06:25
(UTC-04:00)
Language:

Cosmos 2151 - Orbit

View from above orbital plane
View from above orbital plane
View from above satellite
View from above satellite

Ground track
Ground track

The orbit data is extracted from the following two-line orbital elements,

1 21422U 91042A   17289.53377494 +.00000282 +00000-0 +25384-4 0  9994
2 21422 082.4982 130.9833 0012835 247.3863 112.5999 14.91876014405517
Epoch (UTC): 16 October 2017 12:48:38
Eccentricity: 0.0012835
inclination: 82.4982°
perigee height: 583 km
apogee height: 601 km
right ascension of ascending node: 130.9833°
argument of perigee: 247.3863°
revolutions per day: 14.91876014
mean anomaly at epoch: 112.5999°
orbit number at epoch: 40551

The dashed part of the orbit path shows where the satellite is in the earth's shadow,  

DLR